sat.trackr.live / text

‹ back to catalog

STARLINK-35306

NORAD 67361 · 2026-003AD

PAYLOAD ACTIVE UNKNOWN

§ Identity

Operator
Country
US
Launch date
2026-01-09
Launch site
AFETR
Launch vehicle
Mass (kg)
RCS (m²)

Purposes: comms

External: N2YO · Heavens-Above · Gunter

§ Orbital elements

Epoch: 2026-09-19T13:16:50.110464Z

Period
94.27 min
Inclination
42.9973°
Eccentricity
0.0001137
Mean motion
15.27583757 rev/d
Perigee alt
482.3 km
Apogee alt
483.8 km
Semi-major
6,861.2 km
B*
4.3247e-4
RAAN
212.1518°
Arg perigee
275.3187°
Mean anomaly
84.7534°
Rev number
3,847

§ Raw data

STARLINK-353061 67361U 26003AD  26262.55335776  .00011659  00000+0  43247-3 0  99972 67361  42.9973 212.1518 0001137 275.3187  84.7534 15.27583757 38477

JSON: /api/v1/satellites/67361 · /tle

For live sub-satellite position, see the globe view (requires WebGL).

§ Visibility from observer

Set your observer location to see the next 7 days of passes ≥ 10°. The values pass through the URL so the page stays shareable.

No JS? Fill the form by hand. The geolocation button needs JavaScript.